Zurück zum Katalog

STARLINK-36676

AktivKommunikationVLEO
NORAD 67912·PAYLOAD·🇺🇸 United States

Gestartet Feb 22, 2026 von Vandenberg Space Force Base

Loading…

Nächste Überflüge (nächste 24 Stunden)

TLE

AktuellSource: CelesTrak SupGP

Epoche: Sep 15, 2026, 04:16 UTC

1 67912C 26036J   26258.17826389 -.00020147  00000+0 -72988-3 0  2589
2 67912  43.0025 255.1177 0001535 273.3559  32.2276 15.27581114    15

Verfolge STARLINK-36676 in Echtzeit mit AllMySat

Download on the App Store